Weather History for La Grange, GA

Change the Weather History Date:

Thursday, January 17, 2013

  Actual Average Record
Temperature  
Mean Temperature 47 °F -  
Max Temperature 56 °F 53 °F 74 °F (1953)
Min Temperature 37 °F 30 °F 3 °F (1977)
Degree Days  
Heating Degree Days 18    
Moisture  
Dew Point 45 °F    
Average Humidity 93    
Maximum Humidity 100    
Minimum Humidity 74    
Precipitation  
Precipitation 0.00 in - - ()
Sea Level Pressure  
Sea Level Pressure 29.94 in    
Wind  
Wind Speed 5 mph (West)    
Max Wind Speed 18 mph    
Max Gust Speed 25 mph    
Visibility 7 miles    
Events Rain    
Averages and records for this station are not official NWS values.
T = Trace of Precipitation, MM = Missing Value Source: NWS Daily Summary

Daily Weather History Graph

Daily Weather History Graph

Search for Another Location

Airport:

Trip Planner

Search our weather history database for the weather conditions in past years. The results will help you decide how hot, cold, wet, or windy it might be!

Date:

Astronomy

Jan. 17, 2013 Rise Set
Actual Time 7:42 AM EST 5:58 PM EST
Civil Twilight 7:16 AM EST 6:25 PM EST
Nautical Twilight 6:45 AM EST 6:55 PM EST
Astronomical Twilight 6:16 AM EST 7:25 PM EST
Moon 11:12 AM EST (1/17) No Moon Set
Length of Visible Light 11h 09m
Length of Day
10h 15m
Waxing Crescent, 37% of the Moon is Illuminated
Jan 17
Waxing Crescent
Jan 18
First Quarter
Jan 26
Full
Feb 3
Last Quarter
Feb 10
New

Hourly Weather History & Observations

Time (EST) Temp. Windchill Dew Point Humidity Pressure Visibility Wind Dir Wind Speed Gust Speed Precip Events Conditions
12:15 AM 55.9 °F - 55.4 °F 98% 29.95 in 7.0 mi Calm Calm - N/A Rain Light Rain
12:35 AM 55.8 °F - 55.4 °F 99% 29.95 in 7.0 mi Calm Calm - N/A Rain Light Rain
12:55 AM 55.6 °F - 55.2 °F 99% 29.95 in 5.0 mi Calm Calm - N/A   Drizzle
1:15 AM 55.8 °F - 55.4 °F 99% 29.94 in 5.0 mi Calm Calm - N/A   Heavy Drizzle
1:35 AM 55.8 °F - 55.6 °F 99% 29.93 in 7.0 mi Calm Calm - N/A Rain Rain
1:55 AM 55.9 °F - 55.6 °F 99% 29.92 in 10.0 mi Calm Calm - N/A   Light Drizzle
2:15 AM 56.3 °F - 55.9 °F 99% 29.93 in 10.0 mi Calm Calm - N/A   Overcast
2:35 AM 56.5 °F - 56.1 °F 99% 29.91 in 7.0 mi Calm Calm - N/A Rain Light Rain
2:55 AM 56.5 °F - 56.3 °F 99% 29.90 in 10.0 mi Calm Calm - N/A   Overcast
3:15 AM 56.7 °F - 56.3 °F 99% 29.90 in 10.0 mi Calm Calm - N/A Rain Light Rain
3:35 AM 56.7 °F - 56.3 °F 99% 29.89 in 10.0 mi Calm Calm - N/A Rain Light Rain
3:55 AM 57.2 °F - 57.2 °F 100% 29.88 in 7.0 mi Calm Calm - N/A Rain Rain
4:15 AM 57.2 °F - 57.2 °F 100% 29.88 in 7.0 mi Calm Calm - N/A Rain Light Rain
4:35 AM 56.5 °F - 56.3 °F 99% 29.87 in 7.0 mi Calm Calm - N/A   Light Drizzle
4:55 AM 56.3 °F - 56.1 °F 99% 29.87 in 3.0 mi Calm Calm - N/A Rain Light Rain
5:15 AM 55.9 °F - 55.8 °F 99% 29.86 in 2.5 mi Calm Calm - N/A Rain Rain
5:35 AM 55.9 °F - 55.8 °F 99% 29.86 in 2.5 mi Calm Calm - N/A   Drizzle
5:55 AM 55.9 °F - 55.8 °F 99% 29.85 in 2.0 mi Calm Calm - N/A Rain Rain
6:15 AM 55.8 °F - 55.8 °F 100% 29.85 in 2.5 mi Calm Calm - N/A   Drizzle
6:35 AM 55.8 °F - 55.8 °F 100% 29.84 in 3.0 mi Calm Calm - N/A   Heavy Drizzle
6:55 AM 55.8 °F - 55.8 °F 100% 29.84 in 5.0 mi WSW 4.6 mph - N/A Rain Rain
7:15 AM 55.6 °F - 55.0 °F 98% 29.84 in 5.0 mi SW 5.8 mph - N/A Rain Heavy Rain
7:35 AM 55.0 °F - 54.5 °F 98% 29.84 in 4.0 mi WSW 8.1 mph - N/A Rain Heavy Rain
7:55 AM 53.8 °F - 52.9 °F 97% 29.85 in 5.0 mi SW 11.5 mph - N/A Rain Heavy Rain
8:15 AM 52.0 °F - 50.7 °F 95% 29.87 in 4.0 mi WSW 11.5 mph 18.4 mph N/A   Heavy Drizzle
8:35 AM 50.2 °F - 48.7 °F 95% 29.88 in 3.0 mi WSW 11.5 mph - N/A   Drizzle
8:55 AM 48.4 °F - 47.1 °F 95% 29.89 in 2.0 mi SW 9.2 mph 18.4 mph N/A   Drizzle
9:15 AM 47.3 °F - 45.7 °F 94% 29.89 in 4.0 mi WSW 10.4 mph - N/A   Overcast
9:35 AM 46.6 °F - 45.3 °F 95% 29.89 in 7.0 mi WSW 8.1 mph - N/A   Overcast
9:55 AM 45.5 °F 39.9 °F 43.9 °F 94% 29.89 in 5.0 mi SW 11.5 mph 21.9 mph N/A   Overcast
10:15 AM 44.4 °F 38.6 °F 43.7 °F 97% 29.90 in 7.0 mi SW 11.5 mph 16.1 mph N/A   Overcast
10:35 AM 43.3 °F 35.8 °F 41.7 °F 94% 29.91 in 10.0 mi SW 16.1 mph 23.0 mph N/A   Overcast
10:55 AM 42.8 °F 35.4 °F 41.2 °F 94% 29.90 in 10.0 mi SW 15.0 mph 18.4 mph N/A   Overcast
11:15 AM 41.9 °F 35.4 °F 40.6 °F 95% 29.91 in 4.0 mi WSW 11.5 mph - N/A   Overcast
11:35 AM 41.9 °F 34.6 °F 40.3 °F 94% 29.90 in 2.5 mi WSW 13.8 mph 20.7 mph N/A   Drizzle
11:55 AM 41.4 °F 33.6 °F 39.2 °F 92% 29.89 in 7.0 mi SW 15.0 mph 20.7 mph N/A   Overcast
12:15 PM 40.6 °F 32.7 °F 37.9 °F 90% 29.89 in 10.0 mi WSW 15.0 mph 21.9 mph N/A   Overcast
12:35 PM 40.5 °F 32.5 °F 37.8 °F 90% 29.88 in 10.0 mi WSW 15.0 mph 21.9 mph N/A   Overcast
12:55 PM 40.3 °F 33.4 °F 38.3 °F 93% 29.89 in 10.0 mi WSW 11.5 mph 23.0 mph N/A   Light Drizzle
1:15 PM 39.9 °F 32.5 °F 38.1 °F 93% 29.88 in 2.5 mi WSW 12.7 mph 21.9 mph N/A Rain Rain
1:35 PM 39.7 °F 33.7 °F 38.1 °F 94% 29.87 in 5.0 mi WSW 9.2 mph 16.1 mph N/A   Light Drizzle
1:55 PM 39.7 °F 31.9 °F 38.1 °F 94% 29.87 in 7.0 mi WSW 13.8 mph 19.6 mph N/A Rain Light Rain
2:15 PM 39.6 °F 33.5 °F 37.6 °F 93% 29.86 in 7.0 mi WSW 9.2 mph 17.3 mph N/A   Overcast
2:35 PM 40.1 °F 32.0 °F 37.6 °F 91% 29.87 in 10.0 mi WSW 15.0 mph 18.4 mph N/A Rain Rain
2:55 PM 39.4 °F 31.4 °F 36.7 °F 90% 29.88 in 7.0 mi WSW 13.8 mph 20.7 mph N/A Rain Rain
3:15 PM 38.8 °F 30.4 °F 36.5 °F 91% 29.89 in 10.0 mi West 15.0 mph 21.9 mph N/A   Light Drizzle
3:35 PM 38.3 °F 30.9 °F 36.0 °F 91% 29.90 in 7.0 mi West 11.5 mph 24.2 mph N/A   Drizzle
3:55 PM 38.1 °F 29.8 °F 36.1 °F 93% 29.92 in 7.0 mi West 13.8 mph 19.6 mph N/A   Drizzle
4:15 PM 38.3 °F 30.1 °F 36.0 °F 91% 29.93 in 10.0 mi West 13.8 mph 21.9 mph N/A   Drizzle
4:35 PM 37.8 °F 28.6 °F 35.8 °F 93% 29.95 in 10.0 mi West 16.1 mph 19.6 mph N/A   Light Drizzle
4:55 PM 37.9 °F 29.6 °F 35.6 °F 91% 29.97 in 10.0 mi WNW 13.8 mph 23.0 mph N/A   Light Drizzle
5:15 PM 37.8 °F 29.0 °F 35.1 °F 90% 29.97 in 10.0 mi WNW 15.0 mph 20.7 mph N/A   Overcast
5:35 PM 37.8 °F 29.0 °F 35.1 °F 90% 30.01 in 10.0 mi NW 15.0 mph 20.7 mph N/A   Overcast
5:55 PM 38.1 °F 28.4 °F 34.7 °F 87% 30.01 in 10.0 mi NW 18.4 mph 23.0 mph N/A   Overcast
6:35 PM 38.3 °F 28.7 °F 34.7 °F 87% 30.04 in 10.0 mi NW 18.4 mph 25.3 mph N/A   Overcast
7:15 PM 39.4 °F 31.4 °F 34.7 °F 83% 30.07 in 10.0 mi NNW 13.8 mph 23.0 mph N/A   Overcast
7:55 PM 40.1 °F 32.4 °F 35.6 °F 84% 30.12 in 10.0 mi NNW 13.8 mph 23.0 mph N/A   Overcast
8:55 PM 41.2 °F 35.0 °F 34.9 °F 78% 30.17 in 10.0 mi North 10.4 mph 20.7 mph N/A   Overcast
9:15 PM 41.0 °F 35.2 °F 34.3 °F 77% 30.18 in 10.0 mi North 9.2 mph 19.6 mph N/A   Mostly Cloudy
9:35 PM 41.0 °F 34.7 °F 33.8 °F 76% 30.19 in 10.0 mi North 10.4 mph 16.1 mph N/A   Scattered Clouds
9:55 PM 40.5 °F 34.6 °F 33.8 °F 77% 30.21 in 10.0 mi North 9.2 mph - N/A   Clear
10:15 PM 40.5 °F 34.6 °F 33.6 °F 77% 30.21 in 10.0 mi North 9.2 mph - N/A   Clear
10:35 PM 40.5 °F 33.2 °F 33.1 °F 75% 30.22 in 10.0 mi North 12.7 mph 19.6 mph N/A   Clear
10:55 PM 40.5 °F 34.6 °F 32.7 °F 74% 30.24 in 10.0 mi North 9.2 mph 19.6 mph N/A   Clear